Regional Weather Roundup
Issued by NWS

Home | Current Version | Previous Version | Text Only | Print | Product List | Glossary On
Versions: 1 2 3 4 5 6 7 8 9 10 11 12 13 14 15 16 17 18 19 20 21 22 23 24 25 26 27 28 29 30 31 32 33 34 35 36 37 38 39 40 41 42 43 44 45 46 47 48 49 50
000
ASUS43 KMPX 250110
RWRMN
WEATHER ROUNDUP FOR MINNESOTA
NATIONAL WEATHER SERVICE TWIN CITIES/CHANHASSEN MN
700 PM CST FRI FEB 24 2017


NOTE: "FAIR" INDICATES FEW OR NO CLOUDS BELOW 12,000 FEET WITH NO
SIGNIFICANT WEATHER AND/OR OBSTRUCTIONS TO VISIBILITY. N/A MEANS
CURRENT SKY AND/OR WEATHER CONDITIONS ARE NOT AVAILABLE.

MNZ060>063-068>070-250200-
   Twin Cities Metro

CITY           SKY/WX    TMP DP  RH WIND       PRES   REMARKS
TWIN CITIES    CLOUDY    24  11  57 N18       29.87R WCI  10
ST PAUL        PTCLDY    24  12  60 N20G26    29.88R WCI  10
CRYSTAL        CLOUDY    23   8  52 N15       29.87R WCI  10
BLAINE         CLOUDY    25  12  58 N17G23    29.88R WCI  11
LAKEVILLE      CLOUDY    23  14  68 N15G22    29.85R WCI  10
EDEN PRAIRIE   CLOUDY    24  10  55 N17G26    29.86R WCI  11
SOUTH ST PAUL  CLOUDY    25  12  56 N20G25    29.86R WCI  11
LAKE ELMO      CLOUDY    25  14  63 N12G21    29.86R WCI  14
$$
MNZ001>005-007-008-013>017-022>024-027-028-250200-
   Northwest Minnesota

CITY           SKY/WX    TMP DP  RH WIND       PRES   REMARKS
BEMIDJI        CLEAR     16   6  66 NW13      29.97S WCI   2
HALLOCK        CLEAR     14   9  79 N10       30.12S WCI   1
ROSEAU         CLEAR     14   7  73 NW13      30.06R WCI   0
WARROAD        CLEAR     14   5  67 NW10      30.05R WCI   1
THIEF RVR FALL CLEAR     14   9  80 NW15      30.08R WCI  -1
CROOKSTON      CLEAR     18  10  73 N20G25    30.11S WCI   1
FOSSTON        CLEAR     16   9  73 NW14      30.04R WCI   1
DETROIT LAKES  PTCLDY    19  12  73 NW18      30.02R WCI   4
MOORHEAD       CLEAR     19  12  73 N20G26    30.09S WCI   4
PARK RAPIDS    CLOUDY    18   6  59 NW15      29.95R WCI   4
MAHNOMEN       FAIR      17  10  74 NW14      30.03R WCI   3
$$
MNZ006-009>011-018-025>026-250200-
   North Central Minnesota

CITY           SKY/WX    TMP DP  RH WIND       PRES   REMARKS
BAUDETTE       CLEAR     12   2  64 NW8       30.00R WCI   0
FLAG ISLAND    CLEAR     12   3  67 NW13      30.02S WCI  -3
INTL FALLS     CLEAR     16   3  56 N13       29.96S WCI   2
WASKISH        CLEAR     14   7  73 N7        30.00R WCI   4
BIG FORK       CLOUDY    16   3  57 NW6       29.94R WCI   7
LONGVILLE      CLOUDY    18   7  62 NW5       29.94R WCI  11
GRAND RAPIDS   CLOUDY    17   7  64 NW15      29.92R WCI   2
CRANE LAKE     CLOUDY    14   1  57 CALM      29.95S
ORR            CLOUDY    14   1  57 CALM      29.90S
COOK           PTCLDY    16   3  57 NW5       29.91S WCI   9
WALKER         FAIR      17   5  59 N13G18    29.95S WCI   4
$$
MNZ012-019>021-037-250200-
   Northeast Minnesota

CITY           SKY/WX    TMP DP  RH WIND       PRES   REMARKS
DULUTH         CLOUDY    18   8  65 N10       29.85R WCI   6
ELY            CLOUDY    16   1  53 NW5       29.87S WCI   9
HIBBING        PTCLDY    15   3  59 N13       29.89R WCI   1
EVELETH        PTCLDY    17  -1  44 N7        29.89S WCI   8
DULUTH HARBOR  CLOUDY    23  12  63 N13       29.91S WCI  11
TWO HARBORS    PTCLDY    19   9  63 N5        29.86R WCI  13
SILVER BAY     PTCLDY    18   5  57 N6        29.85S WCI   9
GRAND MARAIS     N/A     19   3  49 N7        29.88F WCI  10
G MARAIS ARPRT CLOUDY    10  -2  56 N12G17    29.79F WCI  -4
$$
MNZ029>031-032-039>041-046>048-054>057-064-250200-
   West Central Minnesota

CITY           SKY/WX    TMP DP  RH WIND       PRES   REMARKS
FERGUS FALLS   PTCLDY    19  12  73 N17G28    30.08R WCI   4
WHEATON        PTCLDY    21  12  68 NW18G26   30.08R WCI   6
MORRIS         PTCLDY    21  14  73 N26G35    30.00R WCI   4
ALEXANDRIA     CLEAR     21  11  65 NW17G24   29.96R WCI   7
ELBOW LAKE     FAIR      19  13  77 NW18G25   30.02R WCI   4
WADENA         CLOUDY    19   9  63 NW18G24   29.96R WCI   4
GLENWOOD       CLOUDY    21  12  68 NW17      29.96R WCI   7
APPLETON       PTCLDY    23  14  68 N25G32    30.01R WCI   7
BENSON         PTCLDY    25  10  54 N14G26    30.00R WCI  13
ORTONVILLE     CLOUDY    21  14  73 N22G29    30.03R WCI   5
MADISON        CLOUDY    27  16  63 N22G28    30.03R WCI  12
WILLMAR        FAIR      25  16  68 NW18G24   29.95R WCI  11
$$
MNZ033>034-036-042>043-049>051-058-059-250200-
   Central Minnesota

CITY           SKY/WX    TMP DP  RH WIND       PRES   REMARKS
ST CLOUD       PTCLDY    22   9  57 N16G23    29.91R WCI   8
SAUK CENTRE    FAIR      22   7  50 N20G26    29.94R WCI   8
PAYNESVILLE    CLEAR     24  11  57 N14G20    29.93R WCI  11
AITKIN         PTCLDY    21   7  53 NW10G16   29.89S WCI  10
PINE RIVER     CLOUDY    19   9  63 N6        29.97R WCI  11
BRAINERD       CLOUDY    19   8  62 N14       29.93R WCI   6
STAPLES        CLOUDY    19   7  58 NW15      29.94R WCI   5
LONG PRAIRIE   FAIR      23   9  54 NW14G23   29.94R WCI  11
LITTLE FALLS   PTCLDY    23   9  54 N8        29.93R WCI  14
LITCHFIELD     CLEAR     25  10  54 N16G22    29.92R WCI  12
BUFFALO        PTCLDY    23  10  58 N18G24    29.91R WCI   9
MAPLE LAKE     PTCLDY    24  12  62 N15G24    29.91R WCI  11
HUTCHINSON     CLEAR     25  12  56 N15G30    29.91R WCI  13
$$
MNZ037-044-045-052-053-250200-
   East Central Minnesota

CITY           SKY/WX    TMP DP  RH WIND       PRES   REMARKS
PRINCETON      PTCLDY    23  10  58 N8        29.90R WCI  14
MORA           PTCLDY    21  10  63 N7        29.90S WCI  13
CAMBRIDGE      CLOUDY    25  12  58 N8        29.88R WCI  16
RUSH CITY      CLOUDY    21  10  63 VRB13G22  29.89R WCI   9
MOOSE LAKE     CLEAR     19   9  63 N6        29.87R WCI  11
HINCKLEY       FAIR      21  12  68 N8        29.88S WCI  12
CLOQUET        PTCLDY    18  10  73 NW5       29.87R WCI  11
MCGREGOR       PTCLDY    19  12  73 NW7       29.90R WCI  10
$$
MNZ071>073-080-081-089-090-097-098-250200-
   Southwest Minnesota

CITY           SKY/WX    TMP DP  RH WIND       PRES   REMARKS
MONTEVIDEO     CLOUDY    25  16  68 N20G29    30.00R WCI  11
GRANITE FALLS  CLOUDY    26  15  63 NW17G30   29.99R WCI  13
CANBY          CLOUDY    25  15  67 N22G32    30.03R WCI  10
MARSHALL       FLURRIES  23  15  71 N26G33    29.97R WCI   6
REDWOOD FALLS  CLOUDY    25  12  58 NW15G25   29.93R WCI  13
OLIVIA         CLEAR     27  16  63 NW20G28   29.93R WCI  13
PIPESTONE      CLOUDY    23  12  63 N20G33    29.96R WCI   8
WINDOM         PTCLDY    23  16  74 NW24      29.90R WCI   7
WORTHINGTON    CLOUDY    22  17  81 N28G36    29.92R WCI   4
JACKSON        CLOUDY    23  16  74 NW20G30   29.88R WCI   8
TRACY          CLOUDY    25  16  70 N23G33    29.96R WCI  10
SLAYTON        CLOUDY    22  15  74 N28G33    29.94R WCI   4
$$
MNZ065>067-074>077-082>085-091>093-250200-
   South Central Minnesota

CITY           SKY/WX    TMP DP  RH WIND       PRES   REMARKS
MANKATO          N/A     23  14  68 N23       29.87R WCI   7
NEW ULM        CLOUDY    25  10  54 N13G25    29.89R WCI  13
ST JAMES       PTCLDY    23  16  74 NW18      29.90R WCI   9
FAIRMONT       FLURRIES  22  15  75 N23       29.87R WCI   6
GLENCOE        PTCLDY    25  16  68 N15G24    29.89R WCI  12
FARIBAULT      CLOUDY    23  14  68 NW13      29.84R WCI  11
OWATONNA       MOCLDY    21  14  73 NW15      29.82R WCI   8
WASECA         CLOUDY    23  14  68 N18       29.85R WCI   9
ALBERT LEA     CLOUDY    21  16  79 N14G20    29.80R WCI   8
$$
MNZ078>079-086>088-094>096-250200-
   Southeast Minnesota

CITY           SKY/WX    TMP DP  RH WIND       PRES   REMARKS
ROCHESTER      FOG       20  18  92 N20G29    29.77R VSB 1   WCI   4
RED WING       CLOUDY    25  10  54 N9G20     29.83R WCI  15
STANTON        CLOUDY    24  15  67 N16       29.83R WCI  11
WINONA         LGT SNOW  23  21  93 NW13      29.79R WCI  11
AUSTIN           N/A     21  18  86 N12G21    29.79R WCI   9
PRESTON          N/A     20  17  86 N20G31    29.74R WCI   5
$$
ABBREVIATIONS USED IN REMARKS
   TC - TEMPERATURES IN CELSIUS
  WCI - WIND CHILL INDEX
   HX - HEAT INDEX
  VSB - VISIBILITY
$$



USA.gov is the U.S. government's official web portal to all federal, state and local government web resources and services.